Concordia, KS

2:25 AM CST on November 19, 2019 (GMT -0600)
Blosser Municipal

Weather History for KCNK - October, 2019

Change the Weather History Date:

Friday, October 18, 2019

  Actual Average Record
Temperature  
Mean Temperature 68 °F 55 °F  
Max Temperature 80 °F 66 °F 89 °F (2005)
Min Temperature 56 °F 43 °F 25 °F (1972)
Degree Days  
Heating Degree Days 0 11  
Month to date heating degree days 148 147  
Since 1 July heating degree days 151 220  
Cooling Degree Days 3 0  
Month to date cooling degree days 9 20  
Year to date cooling degree days 1657 1346  
Growing Degree Days 18 (Base 50)    
Moisture  
Dew Point 46 °F    
Average Humidity 45    
Maximum Humidity 57    
Minimum Humidity 33    
Precipitation  
Precipitation 0.15 in 0.06 in 1.99 in (1885)
Month to date precipitation 1.20 1.20  
Year to date precipitation 32.22 25.21  
Snow  
Snow 0.00 in 0.00 in T in (1976)
Month to date snowfall 0.0 0.0  
Year to date snowfall 32.3 13.7  
Since 1 July snowfall 0.0 0.0  
Snow Depth 0.00 in    
Sea Level Pressure  
Sea Level Pressure 29.59 in    
Wind  
Wind Speed 19 mph (SSE)    
Max Wind Speed 36 mph    
Max Gust Speed 49 mph    
Visibility 10 miles    
Events Rain , Thunderstorm    
T = Trace of Precipitation, MM = Missing Value Source: NWS Daily Summary

Daily Weather History Graph

Daily Weather History Graph

Search for Another Location

Airport or City:

Astronomy

Oct. 18, 2019 Rise Set
Actual Time 7:43 AM CDT 6:47 PM CDT
Civil Twilight 7:16 AM CDT 7:14 PM CDT
Nautical Twilight 6:45 AM CDT 7:45 PM CDT
Astronomical Twilight 6:13 AM CDT 8:16 PM CDT
Moon 10:05 PM CDT (10/18) 12:16 PM CDT (10/18)
Length of Visible Light 11h 58m
Length of Day
11h 03m
Waning Gibbous, 78% of the Moon is Illuminated
Oct 18
Waning Gibbous
Oct 21
Last Quarter
Oct 27
New
Nov 4
First Quarter
Nov 12
Full

Hourly Weather History & Observations

Time (CDT) Temp. Dew Point Humidity Pressure Visibility Wind Dir Wind Speed Gust Speed Precip Events Conditions
12:55 AM 60.1 °F 42.1 °F 51% 29.67 in 10.0 mi South 15.0 mph - N/A   Clear
1:55 AM 57.9 °F 42.1 °F 56% 29.67 in 10.0 mi South 16.1 mph 25.3 mph N/A   Clear
2:55 AM 59.0 °F 41.0 °F 51% 29.66 in 10.0 mi South 20.7 mph 28.8 mph N/A   Clear
3:55 AM 57.0 °F 42.1 °F 57% 29.64 in 10.0 mi SSE 16.1 mph - N/A   Clear
4:55 AM 59.0 °F 41.0 °F 51% 29.63 in 10.0 mi South 19.6 mph 32.2 mph N/A   Clear
5:55 AM 60.1 °F 39.9 °F 47% 29.60 in 10.0 mi South 28.8 mph 35.7 mph N/A   Clear
6:55 AM 57.9 °F 39.9 °F 51% 29.60 in 10.0 mi South 24.2 mph 33.4 mph N/A   Clear
7:55 AM 57.0 °F 39.9 °F 53% 29.59 in 10.0 mi SSE 26.5 mph 40.3 mph N/A   Clear
8:55 AM 60.1 °F 41.0 °F 49% 29.57 in 10.0 mi South 26.5 mph 38.0 mph N/A   Clear
9:55 AM 63.0 °F 43.0 °F 48% 29.58 in 10.0 mi South 24.2 mph 41.4 mph N/A   Clear
10:55 AM 68.0 °F 44.1 °F 42% 29.54 in 10.0 mi South 32.2 mph 43.7 mph N/A   Clear
11:55 AM 72.0 °F 46.0 °F 40% 29.52 in 10.0 mi South 33.4 mph 48.3 mph N/A   Clear
12:55 PM 75.9 °F 46.9 °F 36% 29.52 in 10.0 mi South 25.3 mph 44.9 mph N/A   Clear
1:55 PM 78.1 °F 48.0 °F 35% 29.50 in 10.0 mi South 26.5 mph 41.4 mph N/A   Clear
2:55 PM 79.0 °F 48.0 °F 34% 29.49 in 10.0 mi South 23.0 mph 35.7 mph N/A   Clear
3:55 PM 80.1 °F 48.0 °F 32% 29.49 in 10.0 mi South 20.7 mph 35.7 mph N/A   Clear
4:55 PM 79.0 °F 48.9 °F 35% 29.49 in 10.0 mi South 21.9 mph 32.2 mph N/A   Clear
5:55 PM 77.0 °F 48.9 °F 37% 29.50 in 10.0 mi South 13.8 mph 33.4 mph N/A   Clear
6:55 PM 72.0 °F 50.0 °F 46% 29.52 in 10.0 mi SSE 15.0 mph - N/A   Clear
7:55 PM 68.0 °F 48.0 °F 49% 29.55 in 10.0 mi SE 9.2 mph - N/A   Clear
8:55 PM 64.0 °F 48.0 °F 56% 29.57 in 10.0 mi ESE 9.2 mph - N/A   Clear
9:55 PM 64.9 °F 46.0 °F 50% 29.62 in 10.0 mi ESE 3.5 mph - N/A   Scattered Clouds
10:07 PM 63.0 °F 48.0 °F 58% 29.67 in 10.0 mi NNW 11.5 mph - N/A Thunderstorm Mostly Cloudy
10:38 PM 59.0 °F 52.0 °F 78% 29.69 in 5.0 mi NNE 4.6 mph - 0.02 in Rain , Thunderstorm Heavy Thunderstorms and Rain
10:55 PM 59.0 °F 52.0 °F 78% 29.66 in 9.0 mi NNE 10.4 mph - 0.09 in Rain , Thunderstorm Light Thunderstorms and Rain
11:17 PM 57.9 °F 54.0 °F 87% 29.70 in 7.0 mi North 6.9 mph - 0.04 in Rain , Thunderstorm Light Rain
11:26 PM 57.9 °F 54.0 °F 87% 29.70 in 9.0 mi ENE 4.6 mph - 0.05 in Rain Light Rain
11:55 PM 57.0 °F 54.0 °F 89% 29.67 in 10.0 mi North 8.1 mph - 0.05 in   Overcast